Yatton Keynell, United Kingdom

3:17 PM GMT on March 25, 2019 (GMT +0000)
Yatton Keynell

Weather History for 03740 - May, 1999

Change the Weather History Date:

Monday, May 31, 1999

  Actual Average Record
Temperature  
Mean Temperature 54 °F -  
Max Temperature 59 °F 65 °F - ()
Min Temperature 48 °F 49 °F - ()
Degree Days  
Heating Degree Days 12    
Growing Degree Days 4 (Base 50)    
Moisture  
Dew Point 49 °F    
Average Humidity 87    
Maximum Humidity 94    
Minimum Humidity 77    
Precipitation  
Precipitation 0.00 in 0.07 in - ()
Sea Level Pressure  
Sea Level Pressure 30.20 in    
Wind  
Wind Speed 5 mph ()    
Max Wind Speed 9 mph    
Max Gust Speed -    
Visibility 5.6 miles    
Events      
T = Trace of Precipitation, MM = Missing Value Source: Averaged Metar Reports

Daily Weather History Graph

Daily Weather History Graph

Search for Another Location

Airport or City:

Astronomy

May. 31, 1999 Rise Set
Actual Time 4:57 AM BST 9:14 PM BST
Civil Twilight 4:12 AM BST 9:59 PM BST
Nautical Twilight 3:06 AM BST 11:05 PM BST
Astronomical Twilight 1:37 AM BST 12:33 AM BST
Moon 10:09 PM BST (5/31) 6:08 AM BST (5/31)
Length of Visible Light 17h 46m
Length of Day
16h 16m
Full, 99% of the Moon is Illuminated
May 31
Full
Jun 7
Last Quarter
Jun 13
New
Jun 20
First Quarter
Jun 28
Full

Hourly Weather History & Observations

Time (BST) Temp. Dew Point Humidity Pressure Visibility Wind Dir Wind Speed Gust Speed Precip Events Conditions
12:50 AM 48.2 °F 46.4 °F 93% 30.18 in 4.3 mi ENE 8.1 mph - N/A   Haze
1:50 AM 48.2 °F 46.4 °F 93% 30.18 in 5.0 mi ENE 9.2 mph - N/A   Haze
2:50 AM 48.2 °F 46.4 °F 93% 30.18 in 5.0 mi ENE 8.1 mph - N/A   Haze
3:50 AM 48.2 °F 46.4 °F 93% 30.18 in 6.2 mi NE 6.9 mph - N/A   Overcast
4:50 AM 48.2 °F 44.6 °F 87% 30.18 in 5.6 mi ENE 8.1 mph - N/A   Light Drizzle
5:50 AM 48.2 °F 46.4 °F 93% 30.18 in 3.1 mi ENE 6.9 mph - N/A   Light Drizzle
6:50 AM 48.2 °F 46.4 °F 93% 30.21 in 2.8 mi NE 5.8 mph - N/A   Light Drizzle
7:50 AM 48.2 °F 46.4 °F 93% 30.21 in 2.8 mi East 6.9 mph - N/A   Mostly Cloudy
8:50 AM 48.2 °F 46.4 °F 93% 30.24 in 6.2 mi ENE 4.6 mph - N/A   Mostly Cloudy
9:50 AM 50.0 °F 46.4 °F 87% 30.24 in 6.2 mi ENE 4.6 mph - N/A   Mostly Cloudy
10:50 AM 50.0 °F 48.2 °F 94% 30.24 in 6.2 mi ENE 4.6 mph - N/A   Overcast
11:50 AM 51.8 °F 48.2 °F 88% 30.24 in 6.2 mi NE 4.6 mph - N/A   Mostly Cloudy
12:50 PM 55.4 °F 50.0 °F 82% 30.24 in 6.2 mi ENE 3.5 mph - N/A   Mostly Cloudy
1:50 PM 55.4 °F 50.0 °F 82% 30.24 in 6.2 mi SE 4.6 mph - N/A   Mostly Cloudy
2:50 PM 57.2 °F 50.0 °F 77% 30.21 in 6.2 mi Calm Calm - N/A   Mostly Cloudy
3:50 PM 57.2 °F 51.8 °F 82% 30.21 in 6.2 mi ESE 2.3 mph - N/A   Mostly Cloudy
4:50 PM 57.2 °F 50.0 °F 77% 30.18 in 6.2 mi Calm Calm - N/A   Mostly Cloudy
5:50 PM 59.0 °F 51.8 °F 77% 30.18 in 6.2 mi SSE 3.5 mph - N/A   Mostly Cloudy
6:50 PM 57.2 °F 51.8 °F 82% 30.18 in 6.2 mi South 2.3 mph - N/A   Overcast
7:50 PM 57.2 °F 51.8 °F 82% 30.18 in 6.2 mi Calm Calm - N/A   Overcast
8:50 PM 57.2 °F 51.8 °F 82% 30.18 in 6.2 mi Calm Calm - N/A   Overcast
9:50 PM 55.4 °F 51.8 °F 88% 30.21 in 6.2 mi Calm Calm - N/A   Overcast
10:50 PM 55.4 °F 51.8 °F 88% 30.21 in 6.2 mi Calm Calm - N/A   Overcast
11:50 PM 55.4 °F 51.8 °F 88% 30.18 in 6.2 mi East 4.6 mph - N/A   Overcast